Regional Weather Roundup
Issued by NWS

Home | Current Version | Previous Version | Graphics & Text | Print | Product List | Glossary On
Versions: 1 2 3 4 5 6 7 8 9 10 11 12 13 14 15 16 17 18 19 20 21 22 23 24 25 26 27 28 29 30 31 32 33 34 35 36 37 38 39 40 41 42 43 44 45 46 47 48 49 50
000
ASUS43 KIND 241009
RWRIN

WEATHER ROUNDUP FOR INDIANA
NATIONAL WEATHER SERVICE INDIANAPOLIS IN
600 AM EDT MON JUL 24 2017

NOTE: "FAIR" INDICATES FEW OR NO CLOUDS BELOW 12,000 FEET WITH NO
SIGNIFICANT WEATHER AND/OR OBSTRUCTIONS TO VISIBILITY.

* - STATION DOES NOT REPORT WEATHER SUCH AS PRECIPITATION OR FOG.

+ - STATION NOT QUALITY CONTROLLED BY THE NATIONAL WEATHER SERVICE.
    USE DATA WITH CAUTION...ESPECIALLY DEWPOINT AND RELATIVE
    HUMIDITY OBSERVATIONS.

INZ001>003-010>013-019-020-241100-
NORTHWEST INDIANA

CITY           SKY/WX    TMP DP  RH WIND       PRES   REMARKS
GARY /AIRPORT/ CLOUDY    70  61  73 N14       29.94R
KNOX *+        CLOUDY    66  64  94 N3        29.92R
LA PORTE +     MOCLDY    67  64  88 N10       29.93R
MICHIGAN CITY+ CLOUDY    68  63  83 N9        29.93R
MONTICELLO +   MOCLDY    67  65  95 N8        29.90R
RENSSELAER +   MOCLDY    66  63  88 N5        29.92R
VALPARAISO     CLOUDY    69  64  84 N5        29.93R

$$

LMZ046-743>745-241100-
SOUTHERN LAKE MICHIGAN

STATION/POSITION TIME  TEMP    WIND        PRES    WAVE
                       AIR SEA DIR/SP/G            HT
                 (UTC) (F)     (DEG/KT/KT) (MB)    (FT)
BURNS HARBOR     0940   70     360/ 16/ 18 1013.9R
MICHIGAN CITY    0940   69     350/ 17/ 19   N/A
5NW MICH CITY    1000   70 74   10/ 14/ 19   N/A     5

$$

INZ004-005-014>016-021>024-241100-
NORTH CENTRAL INDIANA

CITY           SKY/WX    TMP DP  RH WIND       PRES   REMARKS
GOSHEN         CLOUDY    66  62  87 NW8       29.90R
LOGANSPORT +   CLOUDY    66  66 100 N8        29.91R
PERU/GRISSOM   MOCLDY    67  67 100 N7        29.88R
ROCHESTER +    CLEAR     68  68 100 NW8       29.91R
SOUTH BEND     MOCLDY    65  63  93 N6        29.92R
WARSAW +       CLOUDY    64  64 100 N8        29.90R

$$

INZ006>009-017-018-025>027-241100-
NORTHEAST INDIANA

CITY           SKY/WX    TMP DP  RH WIND       PRES   REMARKS
AUBURN +       CLEAR     66  63  88 NW8       29.88R
FORT WAYNE     MOCLDY    68  64  87 NW7       29.88R
HUNTINGTON +   PTCLDY    65  64  96 NW3       29.88R
KENDALLVILLE + CLEAR     65  65  99 N8        29.89R

$$

INZ028-029-035-036-043>045-051>053-241100-
WEST CENTRAL INDIANA

CITY           SKY/WX    TMP DP  RH WIND       PRES   REMARKS
GREENCASTLE +  CLEAR     66  63  88 CALM      29.89R
LAFAYETTE      CLEAR     64  64 100 CALM      29.90R
TERRE HAUTE    CLEAR     67  65  93 CALM      29.89R

$$

INZ030>032-037>040-046>048-054>057-064-065-241100-
CENTRAL INDIANA

CITY           SKY/WX    TMP DP  RH WIND       PRES   REMARKS
CP ATTERBURY + CLEAR     66  64  94 CALM      29.89R
FRANKFORT +    MOCLDY    68  66  96 N5        29.92R FOG
GREENWOOD *+   CLEAR    N/A N/A N/A NW3       29.88R
INDIANAPOLIS   PTCLDY    68  64  87 N9        29.87R
-EAGLE CREEK   CLEAR     69  64  84 NW9       29.87R
KOKOMO +         N/A     67  65  93 MISG        N/A
MARION +       PTCLDY    63  63 100 NW5       29.89S
MT COMFORT *+  CLEAR     66  64  94 NW6       29.88R
SHELBYVILLE    PTCLDY    69  65  86 CALM      29.87R
ZIONSVILLE +   PTCLDY    65  64  96 N8        29.90R

$$

INZ033-034-041-042-049-050-058-059-241100-
EAST CENTRAL INDIANA

CITY           SKY/WX    TMP DP  RH WIND       PRES   REMARKS
MUNCIE         CLEAR     67  63  87 NW5       29.88R
RICHMOND +     CLEAR     64  64 100 W6        29.88R FOG

$$

INZ060-061-067>069-081>083-085>088-241100-
SOUTHWEST INDIANA

CITY           SKY/WX    TMP DP  RH WIND       PRES   REMARKS
EVANSVILLE     CLEAR     71  69  93 S5        29.90R
HUNTINGBURG *+ CLEAR     70  70 100 S9        29.90R

$$

INZ062-063-066-070>080-084-089>092-241100-
SOUTH CENTRAL AND SOUTHEAST INDIANA

CITY           SKY/WX    TMP DP  RH WIND       PRES   REMARKS
BEDFORD +      PTCLDY    68  66  94 CALM      29.89R
BLOOMINGTON    PTCLDY    67  64  90 CALM      29.90R
MADISON *+     CLOUDY    70  68  94 CALM      29.91R
NORTH VERNON + PTCLDY    66  66 100 S3        29.90R
SEYMOUR +      CLOUDY   N/A N/A N/A SW5       29.90R

$$




USA.gov is the U.S. government's official web portal to all federal, state and local government web resources and services.